This is the latest recevied weather packets stored in our database for station/object K4CRS-13. If no packets are shown the sender has not sent any weather packets the latest 10 day(s).
| Time | Temp. | Humidity | Pressure | Rain* | Wind** | Luminosity | Snow |
|---|---|---|---|---|---|---|---|
| 1777212620 | 22.22° C | 75% | 1048.2 hPa | 0 mm | - | 288 W/m² | - |
| 1777212317 | 22.22° C | 76% | 1048.1 hPa | 0 mm | - | 269 W/m² | - |
| 1777212013 | 21.67° C | 76% | 1048 hPa | 0 mm | - | 471 W/m² | - |
| 1777211709 | 22.22° C | 77% | 1048.3 hPa | 0 mm | - | 301 W/m² | - |
| 1777211408 | 22.22° C | 81% | 1048.4 hPa | 0 mm | - | 265 W/m² | - |
| 1777211103 | 22.22° C | 80% | 1048.1 hPa | 0 mm | - | 276 W/m² | - |
| 1777210801 | 21.67° C | 81% | 1048.3 hPa | 0 mm | - | 414 W/m² | - |
| 1777210499 | 21.67° C | 82% | 1048.2 hPa | 0 mm | - | 318 W/m² | - |
| 1777210196 | 21.11° C | 87% | 1048.2 hPa | 0 mm | - | 262 W/m² | - |
| 1777209893 | 20.56° C | 92% | 1048 hPa | 0 mm | - | 236 W/m² | - |
| 1777209588 | 20° C | 96% | 1048 hPa | 0 mm | - | 216 W/m² | - |
| 1777209284 | 19.44° C | 98% | 1048.1 hPa | 0 mm | - | 201 W/m² | - |
| 1777208981 | 18.89° C | 99% | 1047.9 hPa | 0 mm | - | 190 W/m² | - |
| 1777208676 | 18.33° C | 99% | 1048.1 hPa | 0 mm | - | 124 W/m² | - |
| 1777208373 | 17.78° C | 99% | 1048.1 hPa | 0 mm | - | 110 W/m² | - |
| 1777208070 | 17.78° C | 99% | 1048.1 hPa | 0 mm | - | 105 W/m² | - |
| 1777207765 | 17.78° C | 99% | 1048.1 hPa | 0 mm | - | 93 W/m² | - |
| 1777207461 | 18.33° C | 99% | 1048 hPa | 0 mm | - | 165 W/m² | - |
| 1777207161 | 17.78° C | 99% | 1047.9 hPa | 0 mm | - | 183 W/m² | - |
| 1777206857 | 17.22° C | 99% | 1048 hPa | 0 mm | - | 145 W/m² | - |
| 1777206552 | 16.67° C | 99% | 1047.7 hPa | 0 mm | - | 107 W/m² | - |
| 1777206247 | 16.67° C | 99% | 1047.6 hPa | 0 mm | - | 65 W/m² | - |
| 1777205942 | 16.67° C | 99% | 1047.4 hPa | 0 mm | - | 58 W/m² | - |
| 1777205639 | 16.11° C | 99% | 1047.4 hPa | 0 mm | - | 81 W/m² | - |
| 1777205336 | 15.56° C | 99% | 1047.3 hPa | 0 mm | - | 72 W/m² | - |
* Rain latest hour (hover to see other rain measurements)
** Current wind speed in m/s (hover to see current wind gust speed)